Rechercher aéroport 
image banner adimage banner adimage banner ad
image banner ad

L77 - Chiriaco Summit

Situé à Chiriaco Summit, United States

ICAO - L77, IATA -

Données fournies par Airmate  

Information générale

Coordonnées: N33°39'53" W115°42'37"
Élévation : 1711 feet MSL.
Variation magnétique : 13° East
Voir autres Aéroports à California

Données opérationnelles

Special qualification required
Heure actuelle UTC:
Heure actuelle locale:
Météo à : KTRM - Jacqueline Cochran Rgnl ( 42 km )
METAR: KTRM 210152Z AUTO 10005KT 10SM CLR 32/08 A2981 RMK AO2 SLP098 T03170083
TAF: KTRM 202324Z 2100/2124 14007KT P6SM SKC FM210200 VRB04KT P6SM SKC FM212000 14008KT P6SM SKC
Voir NOTAMs / SUP AIP / TFR affectant cet aéroport [VIEW]
Fréquences de communication: [VIEW]

Pistes:

Identifiant RWYQFULongueur (ft)Largeur (ft)SurfaceLDA (ft)
06400050ASPH
24400050ASPH

Coordonnées de l'aéroport

Adresse: Chiriaco Summit United States

Vue satellite de L77